Regional Weather Roundup
Issued by NWS Spokane, WA

Home | Current Version | Previous Version | Text Only | Print | Product List | Glossary On
Versions: 1 2 3 4 5 6 7 8 9 10 11 12 13 14 15 16 17 18 19 20 21 22 23 24 25 26 27 28 29 30 31 32 33 34 35 36 37 38 39 40 41 42 43 44 45 46 47 48 49 50
000
NZUS01 KOTX 211110
RWROTX
EASTERN WASHINGTON/NORTHERN IDAHO ROUNDUP
NATIONAL WEATHER SERVICE, SPOKANE WA
400 AM PDT TUE APR 21 2015

Note: "fair" indicated few or no clouds below 12,000 feet with no
significant weather and/or obstructions to visibility.

...NORTHEAST WASHINGTON AND NORTHERN IDAHO PANHANDLE...

CITY           SKY/WX    TMP DP  RH WIND       PRES   REMARKS
SPOKANE INTL   CLEAR     50  36  58 SE7       29.82S
SPOKANE DOWNTO CLEAR     44  37  76 NE5       29.84R
COEUR D ALENE  CLEAR     39  34  81 NE6       29.86R
DEER PARK      CLEAR     38  35  89 CALM      29.83S
SANDPOINT      CLEAR     36  36 100 CALM      29.85S
BONNERS FERRY  FAIR      41  36  81 CALM      29.86R

...SOUTHEAST WASHINGTON AND SOUTHERN IDAHO PANHANDLE...

CITY           SKY/WX    TMP DP  RH WIND       PRES   REMARKS
WALLA WALLA    CLEAR     57  38  48 E7        29.80R
PULLMAN/MOSCOW CLEAR     39  33  79 CALM      29.86R
LEWISTON       CLEAR     49  36  61 CALM      29.83R
LOWELL           N/A     41  38  89 N3        29.92R

...COLUMBIA BASIN...

CITY           SKY/WX    TMP DP  RH WIND       PRES   REMARKS
EPHRATA        CLEAR     49  37  63 N3        29.78S
MOSES LAKE     CLEAR     42  36  79 N7        29.79R
TRI CITIES     CLEAR     42  39  89 CALM      29.80R
HERMISTON      CLEAR     44  36  73 S6        29.79S
PENDLETON      CLEAR     45  36  70 E9        29.80S

...EAST SLOPES CASCADES...

CITY           SKY/WX    TMP DP  RH WIND       PRES   REMARKS
THE DALLES     PTCLDY    50  40  68 SE5       29.81S
YAKIMA         CLEAR     44  36  73 W6        29.81R
ELLENSBURG     CLEAR     47  36  65 E3        29.82R
WENATCHEE      PTCLDY    57  36  45 NW9       29.80R
OMAK           CLEAR     44  36  73 N5        29.81R

...SOUTHERN BRITISH COLUMBIA...

CITY           SKY/WX    TMP DP  RH WIND       PRES   REMARKS
PENTICTON      CLEAR     41  34  75 N6        29.82S
CRANBROOK      PTCLDY    43  30  61 W6        29.87R

...WESTERN MONTANA...

CITY           SKY/WX    TMP DP  RH WIND       PRES   REMARKS
MISSOULA       CLEAR     39  30  70 CALM      29.89R

...NEIGHBORING CITIES...

CITY           SKY/WX    TMP DP  RH WIND       PRES   REMARKS
SEATTLE        CLEAR     54  43  66 CALM      29.88R
CALGARY        MOCLDY    48  34  57 S5        29.86S



USA.gov is the U.S. government's official web portal to all federal, state and local government web resources and services.